• In Netherlands
  • List of Countries
  • For 7 days
  • Water Temperature
  • Satellite Maps
  • Weather Map
  • Weather Widgets
  • user-avatar
    Login

    Hourly Weather Saurimo

    Today, 17 January, Tuesday

    Time Temperature Precipitation Wind Pressure Humidity
    00:00 +22°C° 0.1 mm 1 mps 668 mmHg 86%
    01:00 +21°C° 0.1 mm 1 mps 668 mmHg 88%
    02:00 +21°C° 0.3 mm 1 mps 668 mmHg 88%
    03:00 +21°C° 0.3 mm 1 mps 668 mmHg 89%
    04:00 +20°C° 0.3 mm 1 mps 668 mmHg 90%
    05:00 +21°C° 0.1 mm 1 mps 668 mmHg 89%
    06:00 +22°C° 0.1 mm 1 mps 669 mmHg 87%
    07:00 +23°C° 0.1 mm 1 mps 669 mmHg 86%
    08:00 +25°C° 0.1 mm 2 mps 670 mmHg 77%
    09:00 +27°C° 0.1 mm 2 mps 670 mmHg 68%
    10:00 +29°C° 0.1 mm 2 mps 670 mmHg 59%
    11:00 +30°C° 0.2 mm 2 mps 670 mmHg 55%
    12:00 +31°C° 0.2 mm 3 mps 669 mmHg 52%
    13:00 +33°C° 0.2 mm 3 mps 669 mmHg 49%
    14:00 +31°C° 0.5 mm 2 mps 668 mmHg 56%
    15:00 +30°C° 0.5 mm 2 mps 668 mmHg 62%
    16:00 +29°C° 0.5 mm 2 mps 667 mmHg 69%
    17:00 +27°C° 0.1 mm 2 mps 667 mmHg 74%
    18:00 +26°C° 0.1 mm 2 mps 667 mmHg 78%
    19:00 +24°C° 0.1 mm 1 mps 668 mmHg 83%
    20:00 +24°C° 0 mm 1 mps 668 mmHg 85%
    21:00 +23°C° 0 mm 1 mps 668 mmHg 86%
    22:00 +23°C° 0 mm 1 mps 668 mmHg 88%
    23:00 +23°C° 0.5 mm 1 mps 668 mmHg 90%

    Tomorrow, 18 January, Wednesday

    Time Temperature Precipitation Wind Pressure Humidity
    00:00 +22°C° 0.5 mm 1 mps 668 mmHg 92%
    01:00 +22°C° 0.5 mm 1 mps 667 mmHg 93%
    02:00 +22°C° 0.4 mm 1 mps 667 mmHg 94%
    03:00 +21°C° 0.4 mm 1 mps 667 mmHg 95%
    04:00 +21°C° 0.4 mm 1 mps 667 mmHg 96%
    05:00 +21°C° 0.4 mm 1 mps 668 mmHg 94%
    06:00 +22°C° 0.4 mm 1 mps 668 mmHg 93%
    07:00 +22°C° 0.4 mm 1 mps 669 mmHg 92%
    08:00 +24°C° 0 mm 2 mps 669 mmHg 81%
    09:00 +26°C° 0 mm 2 mps 670 mmHg 69%
    10:00 +28°C° 0 mm 3 mps 670 mmHg 58%
    11:00 +29°C° 0 mm 3 mps 670 mmHg 53%
    12:00 +30°C° 0 mm 3 mps 670 mmHg 48%
    13:00 +31°C° 0 mm 2 mps 669 mmHg 43%
    14:00 +30°C° 0.2 mm 3 mps 669 mmHg 50%
    15:00 +29°C° 0.2 mm 3 mps 668 mmHg 56%
    16:00 +28°C° 0.2 mm 3 mps 668 mmHg 62%
    17:00 +27°C° 0 mm 3 mps 668 mmHg 68%
    18:00 +25°C° 0 mm 3 mps 669 mmHg 74%
    19:00 +24°C° 0 mm 2 mps 669 mmHg 79%
    20:00 +23°C° 0 mm 2 mps 669 mmHg 81%
    21:00 +23°C° 0 mm 2 mps 669 mmHg 83%
    22:00 +21°C° 0 mm 2 mps 670 mmHg 85%
    23:00 +21°C° 0 mm 2 mps 669 mmHg 84%

    Day after tomorrow, 19 January, Thursday

    Time Temperature Precipitation Wind Pressure Humidity
    00:00 +21°C° 0 mm 2 mps 669 mmHg 83%
    01:00 +21°C° 0 mm 2 mps 669 mmHg 83%
    02:00 +20°C° 0 mm 2 mps 669 mmHg 83%
    03:00 +20°C° 0 mm 2 mps 669 mmHg 83%
    04:00 +21°C° 0 mm 1 mps 669 mmHg 83%
    05:00 +21°C° 0 mm 2 mps 669 mmHg 81%
    06:00 +21°C° 0 mm 2 mps 670 mmHg 80%
    07:00 +21°C° 0 mm 2 mps 671 mmHg 79%
    08:00 +24°C° 0 mm 2 mps 671 mmHg 70%
    09:00 +26°C° 0 mm 2 mps 672 mmHg 61%
    10:00 +28°C° 0 mm 2 mps 672 mmHg 51%
    11:00 +29°C° 0.1 mm 3 mps 672 mmHg 48%
    12:00 +30°C° 0.1 mm 3 mps 671 mmHg 44%
    13:00 +33°C° 0.1 mm 3 mps 671 mmHg 40%
    14:00 +31°C° 0 mm 3 mps 670 mmHg 44%
    15:00 +30°C° 0 mm 3 mps 670 mmHg 48%
    16:00 +30°C° 0 mm 2 mps 670 mmHg 52%
    17:00 +28°C° 0 mm 2 mps 670 mmHg 58%
    18:00 +26°C° 0 mm 2 mps 670 mmHg 65%
    19:00 +24°C° 0 mm 1 mps 669 mmHg 72%
    20:00 +23°C° 0 mm 1 mps 670 mmHg 73%
    21:00 +23°C° 0 mm 1 mps 670 mmHg 74%
    22:00 +22°C° 0 mm 1 mps 670 mmHg 74%
    23:00 +22°C° 0 mm 1 mps 669 mmHg 75%

    20 January, Friday

    Time Temperature Precipitation Wind Pressure Humidity
    00:00 +21°C° 0 mm 1 mps 669 mmHg 75%
    01:00 +21°C° 0 mm 1 mps 668 mmHg 75%
    02:00 +20°C° 0 mm 1 mps 668 mmHg 76%
    03:00 +20°C° 0 mm 1 mps 668 mmHg 76%
    04:00 +20°C° 0 mm 1 mps 668 mmHg 76%
    05:00 +20°C° 0 mm 1 mps 669 mmHg 75%
    06:00 +21°C° 0 mm 1 mps 670 mmHg 73%
    07:00 +22°C° 0 mm 1 mps 670 mmHg 72%
    08:00 +24°C° 0 mm 1 mps 671 mmHg 64%
    09:00 +27°C° 0 mm 2 mps 671 mmHg 56%
    10:00 +29°C° 0 mm 2 mps 672 mmHg 48%
    11:00 +30°C° 0 mm 2 mps 671 mmHg 44%
    12:00 +31°C° 0 mm 3 mps 670 mmHg 40%
    13:00 +33°C° 0 mm 3 mps 670 mmHg 36%
    14:00 +33°C° 0 mm 3 mps 669 mmHg 39%
    15:00 +31°C° 0 mm 3 mps 669 mmHg 42%
    16:00 +31°C° 0 mm 2 mps 668 mmHg 45%
    17:00 +29°C° 0 mm 2 mps 668 mmHg 51%
    18:00 +27°C° 0 mm 2 mps 668 mmHg 57%
    19:00 +24°C° 0 mm 2 mps 668 mmHg 63%
    20:00 +24°C° 0 mm 2 mps 669 mmHg 64%
    21:00 +23°C° 0 mm 2 mps 669 mmHg 66%
    22:00 +23°C° 0 mm 1 mps 669 mmHg 67%
    23:00 +22°C° 0 mm 1 mps 669 mmHg 69%

    21 January, Saturday

    Time Temperature Precipitation Wind Pressure Humidity
    00:00 +22°C° 0 mm 1 mps 668 mmHg 71%
    01:00 +21°C° 0 mm 1 mps 668 mmHg 72%
    02:00 +21°C° 0 mm 1 mps 668 mmHg 74%
    03:00 +20°C° 0 mm 1 mps 668 mmHg 75%
    04:00 +20°C° 0 mm 1 mps 668 mmHg 77%
    05:00 +21°C° 0.5 mm 1 mps 669 mmHg 80%
    06:00 +21°C° 0.5 mm 1 mps 669 mmHg 83%
    07:00 +21°C° 0.5 mm 1 mps 670 mmHg 86%
    08:00 +23°C° 0.1 mm 1 mps 670 mmHg 81%
    09:00 +24°C° 0.1 mm 1 mps 670 mmHg 77%
    10:00 +25°C° 0.1 mm 1 mps 671 mmHg 72%
    11:00 +25°C° 0.1 mm 1 mps 670 mmHg 72%
    12:00 +25°C° 0.1 mm 2 mps 670 mmHg 71%
    13:00 +26°C° 0.1 mm 2 mps 669 mmHg 70%
    14:00 +25°C° 0 mm 2 mps 669 mmHg 72%
    15:00 +25°C° 0 mm 1 mps 668 mmHg 73%
    16:00 +24°C° 0 mm 1 mps 668 mmHg 75%
    17:00 +24°C° 0 mm 1 mps 668 mmHg 75%
    18:00 +23°C° 0 mm 1 mps 668 mmHg 76%
    19:00 +22°C° 0 mm 1 mps 668 mmHg 76%
    20:00 +21°C° 0 mm 1 mps 668 mmHg 77%
    21:00 +21°C° 0 mm 1 mps 668 mmHg 77%
    22:00 +20°C° 0 mm 1 mps 668 mmHg 78%
    23:00 +20°C° 0 mm 1 mps 668 mmHg 78%

    22 January, Sunday

    Time Temperature Precipitation Wind Pressure Humidity
    00:00 +19°C° 0 mm 1 mps 668 mmHg 77%
    01:00 +19°C° 0 mm 1 mps 667 mmHg 77%
    02:00 +19°C° 0 mm 1 mps 667 mmHg 78%
    03:00 +18°C° 0 mm 1 mps 668 mmHg 79%
    04:00 +18°C° 0 mm 1 mps 668 mmHg 81%
    05:00 +19°C° 0 mm 1 mps 668 mmHg 79%
    06:00 +20°C° 0 mm 1 mps 669 mmHg 77%
    07:00 +22°C° 0 mm 1 mps 670 mmHg 75%
    08:00 +24°C° 0 mm 1 mps 670 mmHg 66%
    09:00 +27°C° 0 mm 2 mps 671 mmHg 56%
    10:00 +30°C° 0 mm 2 mps 671 mmHg 46%
    11:00 +31°C° 0 mm 2 mps 671 mmHg 42%
    12:00 +32°C° 0 mm 2 mps 670 mmHg 39%
    13:00 +34°C° 0 mm 2 mps 670 mmHg 35%
    14:00 +32°C° 0 mm 2 mps 669 mmHg 39%
    15:00 +32°C° 0 mm 2 mps 669 mmHg 42%
    16:00 +31°C° 0 mm 2 mps 669 mmHg 46%
    17:00 +28°C° 0.3 mm 2 mps 669 mmHg 58%
    18:00 +26°C° 0.3 mm 2 mps 668 mmHg 70%
    19:00 +23°C° 0.3 mm 2 mps 668 mmHg 82%
    20:00 +21°C° 0.1 mm 2 mps 669 mmHg 84%
    21:00 +22°C° 0.1 mm 1 mps 669 mmHg 87%
    22:00 +21°C° 0.1 mm 1 mps 669 mmHg 89%
    23:00 +21°C° 0.1 mm 1 mps 669 mmHg 89%
    Show more